Location: ????????
(55.0808°N, 38.5463°E)
Time: 18:21:50
(UTC+00:00)

FENGYUN 3A - Pass Details

Date: 14 April 2024
Orbit: 821 x 835 km, 98.6° (Epoch: 27 May)

Event Time Altitude Azimuth Distance (km) Brightness Sun altitude
Rises 00:43:53 0° 14° (NNE) 3,399 7.8 -13.4°
Reaches altitude 10° 00:46:17 10° 11° (N) 2,460 6.9 -13.1°
Maximum altitude 00:51:37 57° 294° (WNW) 977 3.9 -12.5°
Enters shadow 00:55:57 15° 219° (SW) 2,079 5.1 -12.0°
